Regional Weather Roundup
Issued by NWS

Home | Current Version | Previous Version | Graphics & Text | Print | Product List | Glossary Off
Versions: 1 2 3 4 5 6 7 8 9 10 11 12 13 14 15 16 17 18 19 20 21 22 23 24 25 26 27 28 29 30 31 32 33 34 35 36 37 38 39 40 41 42 43 44 45 46 47 48 49 50

000
ASUS43 KMKX 281000
RWRWI

WISCONSIN REGIONAL WEATHER ROUNDUP
NATIONAL WEATHER SERVICE MILWAUKEE/SULLIVAN WI
400 AM CST FRI NOV 28 2014

NOTE: "FAIR" INDICATES FEW OR NO CLOUDS BELOW 12,000 FEET WITH NO
SIGNIFICANT WEATHER AND/OR OBSTRUCTIONS TO VISIBILITY.

WIZ001-002-006>008-014>016-023>028-281100-
NORTHWEST WISCONSIN

CITY           SKY/WX    TMP DP  RH WIND       PRES   REMARKS
SUPERIOR ARPT  FLURRIES   8   3  81 SE3       30.20F
ASHLAND        CLOUDY     7   0  73 S3        30.20F
HAYWARD        CLOUDY     6   0  76 E3        30.16F
SIREN          LGT SNOW   9   5  82 SE6       30.15F WCI  -1
CUMBERLAND     LGT SNOW   9   3  78 SE10      30.13F WCI  -6
RICE LAKE      LGT SNOW   9   5  84 E7        30.18F WCI  -3
CHETEK         LGT SNOW   8   4  84 E7        30.18F WCI  -3
LADYSMITH      LGT SNOW   8   4  83 SE6       30.20F WCI  -2
EAU CLAIRE     LGT SNOW   9   4  80 SE7       30.19F WCI  -2
MENOMONIE      LGT SNOW  10   6  85 E9        30.19F VSB 3/4 WCI  -4
NEW RICHMOND   LGT SNOW  10   6  85 SE9       30.14F WCI  -4
OSCEOLA        LGT SNOW  10   7  85 SE10      30.17F WCI  -3
$$

WIZ003>005-009-010-017-018-281100-
NORTH CENTRAL WISCONSIN

CITY           SKY/WX    TMP DP  RH WIND       PRES   REMARKS
MANITOWISH WTR MOCLDY     2  -1  86 S5        30.16F WCI  -7
ARBOR VITAE    MOCLDY     5   1  85 S5        30.16F WCI  -4
WOODRUFF       MOCLDY     5   1  85 S5        30.16F WCI  -4
RHINELANDER    CLOUDY     2  -2  83 CALM      30.17F
EAGLE RIVER    PTCLDY     2  -3  80 CALM      30.15F
LAND O LAKES   PTCLDY    -1  -4  83 CALM      30.17F
PHILLIPS       CLOUDY     4  -2  76 S6        30.16F WCI  -6
TOMAHAWK       MOCLDY     3   0  85 CALM      30.19F
MEDFORD        LGT SNOW   6   1  81 SE5       30.18F WCI  -3
MERRILL        MOCLDY     4   1  86 CALM      30.22F
$$

WIZ029-030-035-036-043>047-281100-
CENTRAL WISCONSIN

CITY           SKY/WX    TMP DP  RH WIND       PRES   REMARKS
WAUSAU         CLOUDY     6   0  76 SE3       30.21F
MOSINEE        CLOUDY     5   3  92 SE3       30.23F
MARSHFIELD     FLURRIES   8   3  80 S6        30.20F WCI  -2
STEVENS POINT  FLURRIES   4   1  86 CALM      30.25F
WAUPACA        CLOUDY     8   4  81 CALM      30.30F
WAUTOMA        NOT AVBL
WISC RAPIDS    CLOUDY     7   2  80 S5        30.26F WCI  -2
CAMP DOUGLAS   FLURRIES  10   7  85 SE6       30.24F WCI   1
$$

WIZ011>013-019>022-031-037>040-048>050-281100-
NORTHEAST WISCONSIN

CITY           SKY/WX    TMP DP  RH WIND       PRES   REMARKS
ANTIGO         PTCLDY     3   0  88 CALM      30.20F
SHAWANO        CLOUDY     7   3  84 CALM      30.29F
OCONTO         MOCLDY     6   4  91 CALM      30.31F
STURGEON BAY   CLOUDY    10   3  72 S3        30.30F
GREEN BAY      CLOUDY     9   4  80 S6        30.30F WCI  -1
MANITOWOC      NOT AVBL
APPLETON       CLOUDY     9   3  78 CALM      30.30F
CLINTONVILLE   CLOUDY     5   1  85 CALM      30.30F
OSHKOSH        CLOUDY    10   3  73 MISG      30.29F
$$

WIZ032>034-041-042-053>061-281100-
SOUTHWEST WISCONSIN

CITY           SKY/WX    TMP DP  RH WIND       PRES   REMARKS
LA CROSSE      LGT SNOW  14   9  80 SE7       30.23F WCI   4
SPARTA         LGT SNOW  12   7  81 SE3       30.25F
VIROQUA        CLOUDY    11   8  86 SE9       30.20F WCI  -2
BOSCOBEL       FLURRIES  15   7  70 SE3       30.26F
PRAIRIE DU CHI CLOUDY    15   8  73 SE7       30.26F WCI   6
PLATTEVILLE    CLOUDY    15   8  76 CALM      30.28F
$$

WIZ056-057-062-063-064-067-068-281100-
SOUTH CENTRAL WISCONSIN

CITY           SKY/WX    TMP DP  RH WIND       PRES   REMARKS
REEDSBURG      FLURRIES  11   5  76 SE3       30.26F
BARABOO/DELLS  CLOUDY    12   7  79 SE3       30.27F
LONE ROCK      NOT AVBL
MINERAL POINT  FLURRIES  16   9  73 SE7       30.25F WCI   6
MADISON        CLOUDY    14   8  77 S10       30.28F WCI   1
MIDDLETON      CLOUDY    17  10  74 S7        30.28F WCI   7
WATERTOWN      CLOUDY    11   8  85 SE3       30.31F
MONROE         CLOUDY    16  10  79 S7        30.27F WCI   6
JANESVILLE     CLOUDY    18  12  79 SE5       30.32F WCI  11
$$

WIZ051-052-058>065-066-070>072-281100-
SOUTHEAST WISCONSIN

CITY           SKY/WX    TMP DP  RH WIND       PRES   REMARKS
MILWAUKEE      CLOUDY    15   7  70 CALM      30.34F
WAUKESHA       CLOUDY    12   9  85 CALM      30.33F
MILWAUKEE/TIMM MOCLDY    14   9  79 CALM      30.36S
RACINE         CLOUDY    15   8  73 CALM      30.36F
BURLINGTON     MOCLDY    12  10  89 CALM      30.33F
KENOSHA        CLOUDY    16  10  77 CALM      30.34F
FOND DU LAC    CLOUDY    10   5  80 S5        30.30F WCI   2
SHEBOYGAN      CLOUDY    11   5  77 CALM      30.32F
WEST BEND      CLOUDY    12   9  85 CALM      30.32F
JUNEAU         CLOUDY    11   8  87 SE6       30.31F WCI   1
$$

LSZ147-162-281100-
LAKE SUPERIOR

STATION/POSITION TIME  TEMP    WIND        PRES    WAVE
                       AIR SEA DIR/SP/G            HT/PER
                 (UTC) (F)     (DEG/KT/KT) (MB)    (FT/S)
DEVILS ISLAND    0900   11     200/ 11/ 13 1025.3F
PORT WING        0900    8     160/  8/ 14 1023.4F
SAXON HARBOR     0940    8      CALM  / 25 1023.4F
$$

LMZ867-665-643>646-281100-
LAKE MICHIGAN

STATION/POSITION TIME  TEMP    WIND        PRES    WAVE
                       AIR SEA DIR/SP/G            HT/PER
                 (UTC) (F)     (DEG/KT/KT) (MB)    (FT/S)
CHAMBERS ISLAND  0900   13     230/  2/  5 1027.1R
N MID LAKE BUOY  0850   19 42  260/  6/ 12 1027.3R   1/ 3
NORTHPORT PIER   0915   13     240/  3/  4 1026.8S
SISTER BAY       0813          290/  7/  9   N/A
KEWAUNEE LAKESHO 0900    9     300/  5/  9 1026.4R
SHEBOYGAN LAKESH 0900   11 34  270/  7/  8 1029.7R
PORT WASHINGTON  0900   13     290/  4/  7 1029.1R
MILWAUKEE LAKESH 0900   17     240/  5/  7   N/A
S MID LAKE BUOY  0850   24 42  260/  6/ 10 1028.8R   2/ 6
KENOSHA   LAKESH 0900   16     250/  3/  6 1028.1S
$$

TC  - TEMPERATURE IN CELSIUS
VSB - VISIBILITY IN STATUTE MILES
WCI - WIND CHILL INDEX
HX  - HEAT INDEX




USA.gov is the U.S. government's official web portal to all federal, state and local government web resources and services.